Regional Weather Roundup
Issued by NWS Sioux Falls, SD

Home | Current Version | Previous Version | Text Only | Print | Product List | Glossary On
Versions: 1 2 3 4 5 6 7 8 9 10 11 12 13 14 15 16 17 18 19 20 21 22 23 24 25 26 27 28 29 30 31 32 33 34 35 36 37 38 39 40 41 42 43 44 45 46 47 48 49 50
000
ASUS43 KFSD 222010
RWRFSD

WEATHER ROUNDUP FOR SE SOUTH DAKOTA/SW MINNESOTA/NW IOWA
NATIONAL WEATHER SERVICE SIOUX FALLS SD
300 PM CDT THU JUN 22 2017

NOTE: "FAIR" INDICATES FEW OR NO CLOUDS BELOW 12,000 FEET WITH NO
SIGNIFICANT WEATHER AND OR OBSTRUCTIONS TO VISIBILITY.


SDZ038>040-050-052>070-222100-
SOUTHEAST SOUTH DAKOTA

CITY           SKY/WX    TMP DP  RH WIND       PRES   REMARKS
BROOKINGS      CLOUDY    68  54  60 NE8       29.80S
CHAMBERLAIN    PTSUNNY   75  51  42 N12       29.84S
HURON          CLOUDY    71  54  54 NE9       29.81S
MADISON        MOCLDY    66  66 100 NE13      29.80R
MITCHELL       CLOUDY    74  60  61 N14       29.81R
SIOUX FALLS    CLOUDY    74  66  76 N8        29.76R
WINNER         CLOUDY    75  50  41 NE10G16   29.85F
YANKTON        MOSUNNY   82  63  52 NE14      29.72S
$$

MNZ071-072-080-081-089-090-097-098-222100-
SOUTHWEST MINNESOTA

CITY           SKY/WX    TMP DP  RH WIND       PRES   REMARKS
FAIRMONT       PTSUNNY   77  66  68 E8        29.73R
JACKSON        CLOUDY    73  63  68 CALM      29.76R
LUVERNE        CLOUDY    72  61  68 NE7       29.76R
MARSHALL       CLOUDY    66  60  81 NW9       29.79S
MONTEVIDEO     CLOUDY    68  66  94 NW6       29.80R
PIPESTONE      CLOUDY    66  59  77 NE10      29.79R
REDWOOD FALLS  LGT RAIN  64  60  87 NW6       29.78R
TRACY          CLOUDY    66  61  85 N10       29.79R
WINDOM         CLOUDY    70  61  73 N13       29.76S
WORTHINGTON    CLOUDY    71  65  81 N13       29.77R
$$

IAZ001>003-012>014-020>022-031-032-NEZ013-014-SDZ071-222100-
NORTHWEST IOWA

CITY           SKY/WX    TMP DP  RH WIND       PRES   REMARKS
CHEROKEE       CLOUDY    82  69  64 N10       29.68F
DENISON        CLOUDY    84  66  54 VRB5G13   29.67R
ESTHERVILLE    CLOUDY    76  64  66 E12       29.72R
LE MARS        MOSUNNY   84  61  45 NE17G26   29.68F
ORANGE CITY    PTSUNNY   79  63  57 E13G18    29.71S
SHELDON        CLOUDY    81  64  57 NE16      29.71S
SIOUX CITY     CLOUDY    87  67  51 NE15G22   29.66R
SPENCER        CLOUDY    83  63  50 E20       29.70S
STORM LAKE     LGT RAIN  79  68  69 NE12      29.69S
$$

ABBREVIATIONS USED IN REMARKS
   TC - TEMPERATURE IN CELSIUS
  WCI - WIND CHILL INDEX
   HX - HEAT INDEX
  VSB - VISIBILITY





USA.gov is the U.S. government's official web portal to all federal, state and local government web resources and services.